When you browse on this site, cookies collect data to enhance your experience and personalize the content and advertising you see.
Visit our Privacy Policy to learn more. By continuing to use the site, you agree to this use of cookies and data.
  • In France
  • List of Countries
  • For 7 days
  • Water Temperature
  • Satellite Maps
  • Weather Map
  • Weather Widgets
  • user-avatar
    Login

    Hourly Weather Adelaide

    Today, 17 June, Monday

    Time Temperature Precipitation Wind Pressure Humidity
    00:00 +10°C° 0 mm 2 mps 763 mmHg 76%
    01:00 +10°C° 0 mm 2 mps 762 mmHg 76%
    02:00 +10°C° 0 mm 2 mps 762 mmHg 76%
    03:00 +10°C° 0 mm 2 mps 762 mmHg 76%
    04:00 +10°C° 0 mm 3 mps 762 mmHg 77%
    05:00 +9°C° 0 mm 3 mps 762 mmHg 78%
    06:00 +9°C° 0 mm 3 mps 762 mmHg 79%
    07:00 +10°C° 0 mm 3 mps 762 mmHg 78%
    08:00 +11°C° 0 mm 4 mps 762 mmHg 77%
    09:00 +12°C° 0 mm 4 mps 762 mmHg 77%
    10:00 +12°C° 0 mm 5 mps 762 mmHg 75%
    11:00 +13°C° 0 mm 5 mps 762 mmHg 73%
    12:00 +14°C° 0 mm 6 mps 761 mmHg 71%
    13:00 +14°C° 0.1 mm 6 mps 761 mmHg 71%
    14:00 +14°C° 0.1 mm 6 mps 760 mmHg 72%
    15:00 +13°C° 0.1 mm 6 mps 760 mmHg 72%
    16:00 +13°C° 0 mm 5 mps 760 mmHg 72%
    17:00 +13°C° 0 mm 5 mps 760 mmHg 72%
    18:00 +12°C° 0 mm 5 mps 760 mmHg 72%
    19:00 +12°C° 0.1 mm 5 mps 760 mmHg 76%
    20:00 +11°C° 0.1 mm 6 mps 760 mmHg 79%
    21:00 +10°C° 0.1 mm 6 mps 760 mmHg 82%
    22:00 +11°C° 0.7 mm 6 mps 760 mmHg 83%
    23:00 +11°C° 0.7 mm 6 mps 760 mmHg 83%

    Tomorrow, 18 June, Tuesday

    Time Temperature Precipitation Wind Pressure Humidity
    00:00 +11°C° 0.7 mm 6 mps 760 mmHg 84%
    01:00 +10°C° 0.1 mm 6 mps 760 mmHg 82%
    02:00 +9°C° 0.1 mm 6 mps 761 mmHg 81%
    03:00 +9°C° 0.1 mm 6 mps 761 mmHg 79%
    04:00 +9°C° 0 mm 5 mps 762 mmHg 79%
    05:00 +8°C° 0 mm 5 mps 762 mmHg 79%
    06:00 +8°C° 0 mm 5 mps 763 mmHg 79%
    07:00 +9°C° 0 mm 5 mps 763 mmHg 76%
    08:00 +9°C° 0 mm 5 mps 764 mmHg 74%
    09:00 +10°C° 0 mm 5 mps 764 mmHg 71%
    10:00 +11°C° 0.1 mm 4 mps 764 mmHg 68%
    11:00 +12°C° 0.1 mm 4 mps 764 mmHg 65%
    12:00 +12°C° 0.1 mm 4 mps 764 mmHg 63%
    13:00 +12°C° 0.1 mm 4 mps 764 mmHg 62%
    14:00 +12°C° 0.1 mm 4 mps 764 mmHg 61%
    15:00 +12°C° 0.1 mm 4 mps 764 mmHg 60%
    16:00 +11°C° 0 mm 3 mps 764 mmHg 64%
    17:00 +10°C° 0 mm 3 mps 765 mmHg 68%
    18:00 +9°C° 0 mm 2 mps 765 mmHg 72%
    19:00 +8°C° 0 mm 2 mps 765 mmHg 73%
    20:00 +8°C° 0 mm 2 mps 765 mmHg 74%
    21:00 +9°C° 0 mm 1 mps 765 mmHg 75%
    22:00 +8°C° 0 mm 1 mps 765 mmHg 75%
    23:00 +8°C° 0 mm 1 mps 766 mmHg 75%

    Day after tomorrow, 19 June, Wednesday

    Time Temperature Precipitation Wind Pressure Humidity
    00:00 +8°C° 0 mm 1 mps 766 mmHg 75%
    01:00 +8°C° 0 mm 1 mps 766 mmHg 74%
    02:00 +8°C° 0 mm 1 mps 765 mmHg 72%
    03:00 +8°C° 0 mm 1 mps 765 mmHg 71%
    04:00 +8°C° 0 mm 1 mps 765 mmHg 71%
    05:00 +7°C° 0 mm 2 mps 766 mmHg 70%
    06:00 +7°C° 0 mm 2 mps 766 mmHg 70%
    07:00 +8°C° 0 mm 2 mps 766 mmHg 68%
    08:00 +9°C° 0 mm 2 mps 766 mmHg 66%
    09:00 +10°C° 0 mm 3 mps 766 mmHg 65%
    10:00 +10°C° 0.1 mm 3 mps 766 mmHg 64%
    11:00 +11°C° 0.1 mm 3 mps 766 mmHg 63%
    12:00 +12°C° 0.1 mm 4 mps 766 mmHg 62%
    13:00 +11°C° 0.3 mm 4 mps 765 mmHg 65%
    14:00 +11°C° 0.3 mm 3 mps 765 mmHg 68%
    15:00 +11°C° 0.3 mm 3 mps 765 mmHg 72%
    16:00 +10°C° 0.1 mm 3 mps 765 mmHg 74%
    17:00 +9°C° 0.1 mm 2 mps 765 mmHg 77%
    18:00 +8°C° 0.1 mm 2 mps 765 mmHg 80%
    19:00 +8°C° 0.2 mm 2 mps 765 mmHg 81%
    20:00 +8°C° 0.2 mm 2 mps 765 mmHg 81%
    21:00 +8°C° 0.2 mm 2 mps 765 mmHg 82%
    22:00 +8°C° 0.1 mm 2 mps 765 mmHg 83%
    23:00 +7°C° 0.1 mm 2 mps 765 mmHg 84%

    20 June, Thursday

    Time Temperature Precipitation Wind Pressure Humidity
    00:00 +7°C° 0.1 mm 2 mps 765 mmHg 86%
    01:00 +7°C° 0.1 mm 2 mps 765 mmHg 85%
    02:00 +7°C° 0.1 mm 2 mps 765 mmHg 85%
    03:00 +7°C° 0.1 mm 2 mps 765 mmHg 85%
    04:00 +6°C° 0 mm 2 mps 765 mmHg 83%
    05:00 +6°C° 0 mm 2 mps 765 mmHg 82%
    06:00 +6°C° 0 mm 2 mps 766 mmHg 81%
    07:00 +7°C° 0 mm 2 mps 766 mmHg 80%
    08:00 +8°C° 0 mm 2 mps 766 mmHg 79%
    09:00 +9°C° 0 mm 2 mps 766 mmHg 78%
    10:00 +9°C° 0 mm 2 mps 766 mmHg 75%
    11:00 +10°C° 0 mm 2 mps 766 mmHg 73%
    12:00 +12°C° 0 mm 2 mps 766 mmHg 70%
    13:00 +12°C° 0.1 mm 2 mps 766 mmHg 69%
    14:00 +12°C° 0.1 mm 2 mps 766 mmHg 69%
    15:00 +12°C° 0.1 mm 1 mps 765 mmHg 69%
    16:00 +11°C° 0 mm 1 mps 766 mmHg 73%
    17:00 +10°C° 0 mm 1 mps 766 mmHg 77%
    18:00 +9°C° 0 mm 1 mps 767 mmHg 81%
    19:00 +9°C° 0 mm 1 mps 767 mmHg 83%
    20:00 +9°C° 0 mm 1 mps 767 mmHg 84%
    21:00 +7°C° 0 mm 2 mps 767 mmHg 86%
    22:00 +7°C° 0 mm 2 mps 767 mmHg 86%
    23:00 +8°C° 0 mm 1 mps 768 mmHg 86%

    21 June, Friday

    Time Temperature Precipitation Wind Pressure Humidity
    00:00 +8°C° 0 mm 1 mps 768 mmHg 86%
    01:00 +8°C° 0 mm 1 mps 768 mmHg 87%
    02:00 +7°C° 0 mm 1 mps 768 mmHg 87%
    03:00 +6°C° 0 mm 2 mps 768 mmHg 88%
    04:00 +6°C° 0 mm 2 mps 768 mmHg 88%
    05:00 +6°C° 0 mm 2 mps 769 mmHg 88%
    06:00 +6°C° 0 mm 2 mps 769 mmHg 89%
    07:00 +7°C° 0 mm 2 mps 769 mmHg 85%
    08:00 +8°C° 0 mm 2 mps 770 mmHg 81%
    09:00 +8°C° 0 mm 2 mps 770 mmHg 77%
    10:00 +11°C° 0 mm 1 mps 770 mmHg 71%
    11:00 +12°C° 0 mm 1 mps 770 mmHg 64%
    12:00 +13°C° 0 mm 1 mps 770 mmHg 58%
    13:00 +13°C° 0 mm 1 mps 769 mmHg 58%
    14:00 +13°C° 0 mm 2 mps 769 mmHg 59%
    15:00 +13°C° 0 mm 2 mps 769 mmHg 60%
    16:00 +12°C° 0 mm 2 mps 769 mmHg 64%
    17:00 +9°C° 0 mm 2 mps 770 mmHg 68%
    18:00 +8°C° 0 mm 2 mps 770 mmHg 71%
    19:00 +8°C° 0 mm 2 mps 770 mmHg 71%
    20:00 +8°C° 0 mm 3 mps 770 mmHg 70%
    21:00 +8°C° 0 mm 3 mps 770 mmHg 69%
    22:00 +7°C° 0 mm 3 mps 770 mmHg 69%
    23:00 +7°C° 0 mm 3 mps 770 mmHg 69%

    22 June, Saturday

    Time Temperature Precipitation Wind Pressure Humidity
    00:00 +7°C° 0 mm 2 mps 770 mmHg 69%
    01:00 +7°C° 0 mm 2 mps 770 mmHg 71%
    02:00 +6°C° 0 mm 2 mps 770 mmHg 72%
    03:00 +6°C° 0 mm 2 mps 770 mmHg 73%
    04:00 +6°C° 0 mm 2 mps 770 mmHg 75%
    05:00 +6°C° 0 mm 2 mps 770 mmHg 77%
    06:00 +6°C° 0 mm 2 mps 770 mmHg 79%
    07:00 +7°C° 0 mm 2 mps 770 mmHg 75%
    08:00 +8°C° 0 mm 2 mps 771 mmHg 72%
    09:00 +9°C° 0 mm 2 mps 771 mmHg 68%
    10:00 +10°C° 0 mm 2 mps 771 mmHg 62%
    11:00 +12°C° 0 mm 1 mps 770 mmHg 55%
    12:00 +13°C° 0 mm 1 mps 770 mmHg 48%
    13:00 +13°C° 0 mm 1 mps 770 mmHg 50%
    14:00 +13°C° 0 mm 1 mps 770 mmHg 51%
    15:00 +12°C° 0 mm 2 mps 769 mmHg 53%
    16:00 +10°C° 0 mm 2 mps 769 mmHg 57%
    17:00 +9°C° 0 mm 2 mps 770 mmHg 61%
    18:00 +8°C° 0 mm 2 mps 770 mmHg 65%
    19:00 +8°C° 0 mm 2 mps 770 mmHg 68%
    20:00 +7°C° 0 mm 2 mps 770 mmHg 71%
    21:00 +7°C° 0 mm 2 mps 770 mmHg 74%
    22:00 +7°C° 0 mm 2 mps 770 mmHg 76%
    23:00 +7°C° 0 mm 2 mps 770 mmHg 78%
    Show more